Regional Weather Roundup
Issued by NWS

Home | Current Version | Previous Version | Text Only | Print | Product List | Glossary On
Versions: 1 2 3 4 5 6 7 8 9 10 11 12 13 14 15 16 17 18 19 20 21 22 23 24 25 26 27 28 29 30 31 32 33 34 35 36 37 38 39 40 41 42 43 44 45 46 47 48 49 50
000
ASUS46 KSTO 020509
RWRCA

NORTHERN AND CENTRAL CA REGIONAL WEATHER ROUNDUP
NATIONAL WEATHER SERVICE SACRAMENTO CA
1000 PM PDT FRI AUG 01 2014

NOTE: FAIR INDICATES FEW OR NO CLOUDS BELOW 12,000 FEET WITH NO
SIGNIFICANT WEATHER AND/OR OBSTRUCTIONS TO VISIBILITY.

CAZ001-003-020600-
NORTHWEST AREA

CITY           SKY/WX    TMP DP  RH WIND       PRES   REMARKS
CRESCENT CITY  CLOUDY    56  55  97 SE13      29.97R
ARCATA         NOT AVBL
SHELTER COVE   NOT AVBL
UKIAH          CLEAR     80  32  17 CALM      29.87R
$$

CAZ006-505>513-020600-
BAY AREA

CITY           SKY/WX    TMP DP  RH WIND       PRES   REMARKS
SANTA ROSA     PTCLDY    57  54  89 S7        29.88R
SAN RAFAEL     N/A       72  MM  MM MISG
NAPA           CLEAR     62  56  80 SW9       29.88R
CONCORD        CLEAR     74  53  48 CALM      29.85R
OAKLAND CITY   N/A       62  MM  MM MISG
OAKLAND        PTCLDY    61  56  83 NW8       29.92R
SAN FRAN CITY  N/A       57  MM  96 MISG
SAN FRAN ARPT  PTCLDY    60  57  89 W20       29.91R
LIVERMORE      PTCLDY    75  55  49 W9        29.87R
HAYWARD        PTCLDY    61  60  97 NW7       29.91R
REDWOOD CITY   N/A       MM  MM  MM MISG
MOFFETT ARPT   PTCLDY    66  59  78 NW5       29.92R
SAN JOSE ARPT  PTCLDY    66  60  81 W6        29.91R
$$
CAZ034-037-514>518-020600-
CENTRAL COAST

CITY           SKY/WX    TMP DP  RH WIND       PRES   REMARKS
WATSONVILLE    CLOUDY    61  57  87 CALM      29.94R
SALINAS        CLOUDY    60  57  89 W8        29.93R
MONTEREY       CLOUDY    59  57  93 W6        29.94R
PT PIEDRAS BLS NOT AVBL
SAN LUIS OBISP CLEAR     61  58  90 NW8       29.92R
SANTA MARIA    CLOUDY    63  59  87 NW5       29.94R FOG
$$
CAZ015-016-020600-
NORTHERN SACRAMENTO VALLEY

CITY           SKY/WX    TMP DP  RH WIND       PRES   REMARKS
REDDING        CLEAR     90  50  25 CALM      29.78R
RED BLUFF      CLEAR     88  54  31 CALM      29.77R
OROVILLE       CLEAR     91  44  19 E6        29.80R
$$
CAZ016>018-020600-
SOUTHERN SACRAMENTO VALLEY

CITY           SKY/WX    TMP DP  RH WIND       PRES   REMARKS
AUBURN         CLEAR     79  43  27 CALM      29.91R
BEALE AFB      CLEAR     86  45  23 E8        29.78R
LINCOLN        FAIR      82  43  24 SE3       29.79R
MARYSVILLE     CLEAR     85  43  22 S7        29.77R
SAC INTL ARPT  CLEAR     85  42  22 SW10      29.78R
MATHER AIRPORT NOT AVBL
DOWNTOWN SAC   N/A       82  MM  MM MISG
SAC EXEC ARPT  CLEAR     78  54  43 S5        29.80R
VACAVILLE      CLEAR     85  37  18 SW7       29.81R
TRAVIS AFB     CLEAR     71  57  60 SW13      29.80R
$$
CAZ019>021-020600-
SAN JOAQUIN VALLEY

CITY           SKY/WX    TMP DP  RH WIND       PRES   REMARKS
STOCKTON       CLEAR     83  51  33 W10       29.82R
MODESTO        CLEAR     87  51  28 N7        29.81R
MERCED         CLEAR     89  47  23 N9        29.81R
LEMOORE        CLEAR     84  45  25 NW10      29.81R
FRESNO         PTCLDY    95  42  16 NW15      29.80R HX  91
HANFORD        MOCLDY    91  53  27 NW9       29.80R
PORTERVILLE    CLEAR     88  59  37 CALM      29.83R
BAKERSFIELD    CLEAR     93  46  19 N8        29.81R
$$
CAZ011-012-071-020600-
NORTHERN MOUNTAINS

CITY           SKY/WX    TMP DP  RH WIND       PRES   REMARKS
YREKA          CLEAR     83  48  29 NW13      29.98R
MOUNT SHASTA   CLEAR     70  37  29 NE6       30.03R
ALTURAS        CLOUDY    67  35  30 CALM      30.09R
$$
CAZ011-012-071-020600-
SIERRA NEVADA MTNS

CITY           SKY/WX    TMP DP  RH WIND       PRES   REMARKS
BLUE CANYON    CLEAR     74  31  20 CALM      30.22R
TRUCKEE        CLEAR     55  34  44 S3        30.26R
TAHOE VLY ARPT CLEAR     63  33  32 CALM      30.28R
MAMMOTH LAKES  CLOUDY    68  34  28 SW9       30.32R
$$



USA.gov is the U.S. government's official web portal to all federal, state and local government web resources and services.